"Pseudo-MPEC" for P10OWGH

Created 2019 Jun 17 11:07:51 UT using Find_Orb

Click here for an explanation of pseudo-MPECs

 
 Astrometry: 
     P10OWGH  C2019 06 11#tAstrometryo6vRg*JxtMwsoa.l=MMPJZJ`hJK(yfD6PW!UUu(-F51
     P10OWGH  C2019 06 11oQnWC1^p;.+eHredacted;MjtDrs0pcLAMUclickv#7]riQOf3]XF51
     P10OWGH  C2019 06 11vBwDIgrm9lWcU*dP1shereM410`if2W#DSyBQIcJforp#pN@K2*VF51
     P10OWGH  C2019 06 11C$]2iGricb/PsgtLfpWi4'`kwh1#explanationYCt/cc(,'DoW=F51

Station data:
(F51) Pan-STARRS 1, Haleakala  (N20.707235 W156.255910)  US/Hawaii.
   Observers N. Primak, A. Schultz, S. Watters, J. Thiel, T. Goggia. Measurer
   PS1 Science Consortium. 1.8-m Ritchey-Chrétien + CCD.

Orbital elements:  P10OWGH
   Perihelion 2019 Sep 3.160094 +/- 45.6 TT =  3:50:32 (JD 2458729.660094)
Epoch 2019 Jun 12.0 TT = JDT 2458646.5   Earth MOID: 0.5101   AutoNEOCP
M 341.12184309 +/- 49               (J2000 ecliptic)
n   0.22700980 +/- 0.417            Peri.  111.70611 +/- 100
a   2.66137640 +/- 3.49             Node   228.82823 +/- 60
e   0.4447192 +/- 0.256             Incl.   10.20220 +/- 42
P   4.34                   H 18.3   G  0.15   U 12.2  SR
q 1.47781114 +/- 0.543    Q 3.84494166 +/- 25.1
From 4 observations 2019 June 11 (56.2 min); mean residual 0".03
Residuals in arcseconds: 
190611 F51  .01-  .00     190611 F51  .04-  .05-    
190611 F51  .03+  .02+    190611 F51  .01+  .03+    

Ephemerides (geocentric):
Date (UTC) HH   RA              Dec         delta   r     elong  mag " sig PA
---- -- -- --  -------------   -----------  ------ ------ -----  --- ---- ---
2019 06 17 11  21 27 05.921   +03 02 20.55  .88859 1.6428 119.1 20.5  52d   0
2019 06 17 12  21 27 09.151   +03 03 12.29  .88820 1.6427 119.1 20.5  53d   0
2019 06 17 13  21 27 12.381   +03 04 04.03  .88782 1.6425 119.1 20.5  53d 179
2019 06 17 14  21 27 15.608   +03 04 55.79  .88744 1.6423 119.1 20.5  53d 179
2019 06 17 15  21 27 18.834   +03 05 47.55  .88706 1.6422 119.1 20.5  54d 179
2019 06 17 16  21 27 22.058   +03 06 39.31  .88668 1.6420 119.2 20.5  54d 179
2019 06 17 17  21 27 25.281   +03 07 31.09  .88630 1.6418 119.2 20.5  54d 179
2019 06 17 18  21 27 28.502   +03 08 22.87  .88592 1.6417 119.2 20.5  54d 179
2019 06 17 19  21 27 31.721   +03 09 14.65  .88554 1.6415 119.2 20.5  55d 179
2019 06 17 20  21 27 34.939   +03 10 06.45  .88516 1.6414 119.2 20.5  55d   0
2019 06 17 21  21 27 38.155   +03 10 58.25  .88478 1.6412 119.3 20.5  55d   0
2019 06 17 22  21 27 41.370   +03 11 50.05  .88440 1.6410 119.3 20.5  55d   0
2019 06 17 23  21 27 44.583   +03 12 41.87  .88402 1.6409 119.3 20.5  55d   0
2019 06 18 00  21 27 47.794   +03 13 33.68  .88364 1.6407 119.3 20.5  55d   0
2019 06 18 01  21 27 51.004   +03 14 25.51  .88326 1.6406 119.3 20.5  56d   0
2019 06 18 02  21 27 54.212   +03 15 17.34  .88288 1.6404 119.3 20.5  56d   0
2019 06 18 03  21 27 57.418   +03 16 09.18  .88250 1.6402 119.4 20.5  56d   0
2019 06 18 04  21 28 00.623   +03 17 01.03  .88212 1.6401 119.4 20.5  56d   0
2019 06 18 05  21 28 03.826   +03 17 52.88  .88174 1.6399 119.4 20.5  56d   0
2019 06 18 06  21 28 07.027   +03 18 44.74  .88136 1.6398 119.4 20.5  56d   0
2019 06 18 07  21 28 10.227   +03 19 36.60  .88098 1.6396 119.4 20.5  56d   0
2019 06 18 08  21 28 13.426   +03 20 28.47  .88061 1.6394 119.5 20.5  56d   0
2019 06 18 09  21 28 16.622   +03 21 20.35  .88023 1.6393 119.5 20.5  56d   0
2019 06 18 10  21 28 19.817   +03 22 12.23  .87985 1.6391 119.5 20.5  56d   0
2019 06 18 11  21 28 23.011   +03 23 04.12  .87947 1.6390 119.5 20.5  57d   0
2019 06 18 12  21 28 26.202   +03 23 56.02  .87910 1.6388 119.5 20.5  57d   0
2019 06 18 13  21 28 29.392   +03 24 47.92  .87872 1.6386 119.6 20.5  57d   0
2019 06 18 14  21 28 32.581   +03 25 39.83  .87834 1.6385 119.6 20.5  57d   0
2019 06 18 15  21 28 35.767   +03 26 31.74  .87796 1.6383 119.6 20.5  57d   0
2019 06 18 16  21 28 38.953   +03 27 23.66  .87759 1.6382 119.6 20.5  57d   0
2019 06 18 17  21 28 42.136   +03 28 15.59  .87721 1.6380 119.6 20.5  57d   0
2019 06 18 18  21 28 45.318   +03 29 07.52  .87684 1.6378 119.6 20.5  57d   0
2019 06 18 19  21 28 48.498   +03 29 59.46  .87646 1.6377 119.7 20.5  58d   0
2019 06 18 20  21 28 51.677   +03 30 51.40  .87608 1.6375 119.7 20.5  58d 179
2019 06 18 21  21 28 54.853   +03 31 43.35  .87571 1.6374 119.7 20.5  58d 179
2019 06 18 22  21 28 58.029   +03 32 35.31  .87533 1.6372 119.7 20.5  58d 179
2019 06 18 23  21 29 01.202   +03 33 27.27  .87496 1.6370 119.7 20.5  59d 179
2019 06 19 00  21 29 04.374   +03 34 19.24  .87458 1.6369 119.8 20.5  59d 179
2019 06 19 01  21 29 07.544   +03 35 11.21  .87421 1.6367 119.8 20.5  59d 179
2019 06 19 02  21 29 10.713   +03 36 03.19  .87383 1.6366 119.8 20.5  59d 179
2019 06 19 03  21 29 13.880   +03 36 55.17  .87346 1.6364 119.8 20.5  60d 179
2019 06 19 04  21 29 17.045   +03 37 47.17  .87308 1.6363 119.8 20.5  60d 179
2019 06 19 05  21 29 20.209   +03 38 39.16  .87271 1.6361 119.9 20.5  60d 179
2019 06 19 06  21 29 23.370   +03 39 31.17  .87233 1.6359 119.9 20.5  60d 179
2019 06 19 07  21 29 26.531   +03 40 23.17  .87196 1.6358 119.9 20.5  60d 179
2019 06 19 08  21 29 29.689   +03 41 15.19  .87159 1.6356 119.9 20.5  61d 179
2019 06 19 09  21 29 32.846   +03 42 07.21  .87121 1.6355 119.9 20.5  61d 179
2019 06 19 10  21 29 36.001   +03 42 59.23  .87084 1.6353 119.9 20.5  61d 179